This is the latest recevied weather packets stored in our database for station/object KD9NSC. If no packets are shown the sender has not sent any weather packets the latest 10 day(s).
| Time | Temp. | Humidity | Pressure | Rain* | Wind** | Luminosity | Snow |
|---|---|---|---|---|---|---|---|
| 1777134743 | 7.78° C | 84% | 1017.5 hPa | 0 mm | - | 74 W/m² | - |
| 1777134438 | 8.33° C | 83% | 1017.5 hPa | 0 mm | - | 73 W/m² | - |
| 1777134135 | 8.33° C | 83% | 1017.5 hPa | 0 mm | - | 71 W/m² | - |
| 1777133833 | 8.89° C | 82% | 1017.4 hPa | 0 mm | - | 71 W/m² | - |
| 1777133528 | 8.33° C | 83% | 1017.3 hPa | 0 mm | - | 81 W/m² | - |
| 1777133223 | 8.89° C | 82% | 1017.3 hPa | 0 mm | - | 104 W/m² | - |
| 1777132917 | 8.89° C | 81% | 1017.4 hPa | 0 mm | - | 101 W/m² | - |
| 1777132613 | 8.89° C | 82% | 1017.4 hPa | 0 mm | - | 103 W/m² | - |
| 1777132310 | 9.44° C | 80% | 1017.4 hPa | 0 mm | - | 129 W/m² | - |
| 1777132006 | 9.44° C | 80% | 1017.3 hPa | 0 mm | - | 117 W/m² | - |
| 1777131705 | 9.44° C | 83% | 1017.3 hPa | 0 mm | - | 112 W/m² | - |
| 1777131405 | 8.89° C | 84% | 1017.4 hPa | 0 mm | - | 277 W/m² | - |
| 1777131103 | 8.33° C | 87% | 1017.3 hPa | 0 mm | - | 154 W/m² | - |
| 1777130799 | 7.78° C | 88% | 1017.1 hPa | 0 mm | - | 96 W/m² | - |
| 1777130496 | 7.78° C | 87% | 1017.2 hPa | 0 mm | - | 68 W/m² | - |
| 1777130192 | 7.78° C | 87% | 1017.1 hPa | 0 mm | - | 67 W/m² | - |
| 1777129888 | 7.78° C | 88% | 1017.1 hPa | 0 mm | - | 64 W/m² | - |
| 1777129583 | 7.78° C | 87% | 1016.9 hPa | 0 mm | - | 65 W/m² | - |
| 1777129282 | 7.78° C | 87% | 1017.1 hPa | 0 mm | - | 66 W/m² | - |
| 1777128979 | 7.78° C | 87% | 1017.1 hPa | 0 mm | - | 68 W/m² | - |
| 1777128674 | 7.78° C | 88% | 1017.1 hPa | 0 mm | - | 62 W/m² | - |
| 1777128373 | 7.78° C | 89% | 1017.2 hPa | 0 mm | - | 63 W/m² | - |
| 1777128069 | 7.78° C | 89% | 1017.2 hPa | 0 mm | - | 58 W/m² | - |
| 1777127767 | 7.22° C | 90% | 1017.3 hPa | 0 mm | - | 54 W/m² | - |
| 1777127464 | 7.22° C | 91% | 1017.2 hPa | 0 mm | - | 54 W/m² | - |
* Rain latest hour (hover to see other rain measurements)
** Current wind speed in m/s (hover to see current wind gust speed)